Home > Weather > Stonewall > Past weeks

Flag for Canada Past Weather in Stonewall, Manitoba, Canada — Yesterday and Last 2 Weeks

Now
73 °F

Partly sunny.


Feels Like: 76 °F
Forecast: 62 / 74 °F
Wind: 18 mph from Northwest

Location: Winnipeg Int. Airportman.

Current Time: Jul 24, 2016 at 1:42:13 PM

Latest Report: Jul 24, 2016 at 1:00 PM


Visibility: 15 mi

Pressure: 29.82 "Hg

Humidity: 65%

Dew Point: 61 °F

Location of StonewallLocation

Past Weather in Stonewall — Graph

°F

Stonewall Temperature Yesterday

Maximum temperature yesterday: 77 °F (at 5:00 PM)
Minimum temperature yesterday: 64 °F (at 1:00 AM)
Average temperature yesterday: 69 °F

High & Low Weather Summary for the Past Weeks

 TemperatureHumidityPressure
High88 °F (Jul 20, 4:00 PM)100% (Jul 10, 2:00 AM)30.20 "Hg (Jul 10, 2:00 AM)
Low48 °F (Jul 15, 2:00 AM)41% (Jul 15, 2:00 PM)29.28 "Hg (Jul 12, 11:00 PM)
Average68 °F80%29.82 "Hg
* Reported Jul 9 12:00 PM — Jul 24 12:00 PM, Stonewall, Weather by CustomWeather, © 2016

Note: Actual official high and low records may vary slightly from our data, if they occured in-between our weather recording intervals... More about our weather records

Advertising

Stonewall Weather History for the Previous 24 Hours

Scroll right to see more
 ConditionsComfort  
Time TempWeatherWind HumidityBarometerVisibility
12:00 PM
Sun, Jul 24
72 °FPartly sunny.20 mph73%29.80 "Hg15 mi
11:00 AM72 °FScattered clouds.18 mph73%29.79 "Hg15 mi
10:00 AM70 °FPassing clouds.14 mph78%29.78 "Hg15 mi
9:00 AM66 °FPassing clouds.17 mph83%29.76 "Hg15 mi
8:00 AM63 °FPassing clouds.13 mph94%29.75 "Hg15 mi
7:00 AM61 °FPassing clouds.13 mph94%29.73 "Hg15 mi
6:00 AM59 °FPassing clouds.12 mph94%29.73 "Hg15 mi
5:00 AM61 °FPassing clouds.12 mph94%29.72 "Hg15 mi
4:00 AM61 °FClear.10 mph94%29.72 "Hg15 mi
3:00 AM63 °FClear.9 mph94%29.70 "Hg15 mi
2:00 AM63 °FClear.14 mph94%29.67 "Hg15 mi
1:00 AM64 °FClear.10 mph88%29.65 "Hg15 mi
12:00 AM68 °FClear.12 mph94%29.65 "Hg15 mi
11:00 PM
Sat, Jul 23
70 °FPassing clouds.13 mph94%29.64 "Hg15 mi
10:00 PM70 °FPartly sunny.9 mph94%29.66 "Hg15 mi
9:00 PM70 °FThunderstorms. Partly sunny.7 mph94%29.68 "Hg10 mi
8:00 PM72 °FLight rain. Broken clouds.9 mph88%29.67 "Hg12 mi
7:50 PM72 °FLight rain. Broken clouds.13 mph88%29.67 "Hg12 mi
7:00 PM73 °FBroken clouds.14 mph78%29.68 "Hg15 mi
6:00 PM75 °FPartly sunny.10 mph74%29.70 "Hg15 mi
5:00 PM77 °FBroken clouds.16 mph69%29.72 "Hg15 mi
4:00 PM75 °FScattered clouds.15 mph74%29.73 "Hg15 mi
3:00 PM72 °FBroken clouds.13 mph78%29.73 "Hg15 mi
2:00 PM68 °FPartly sunny.12 mph88%29.78 "Hg15 mi
1:00 PM68 °FMostly cloudy.10 mph88%29.79 "Hg15 mi
Weather by CustomWeather, © 2016

See weather overviewHow to use our weather pages